Weather History for KMDQ - February, 2013

Change the Weather History Date:

Friday, February 1, 2013

  Actual Average (KHSV) Record (KHSV)
Temperature  
Mean Temperature 32 °F 43 °F  
Max Temperature 41 °F 53 °F 74 °F (1967)
Min Temperature 24 °F 33 °F 4 °F (1936)
Degree Days  
Heating Degree Days 32 22  
Month to date heating degree days 22  
Since 1 July heating degree days 1932  
Cooling Degree Days 0 0  
Month to date cooling degree days 0  
Year to date cooling degree days 0  
Moisture  
Dew Point 13 °F    
Average Humidity 51    
Maximum Humidity 75    
Minimum Humidity 30    
Precipitation  
Precipitation 0.00 in 0.17 in 2.58 in (1969)
Month to date precipitation 0.17  
Year to date precipitation 5.06  
Snow  
Snow 0.00 in - - ()
Month to date snowfall  
Since 1 July snowfall  
Snow Depth -    
Sea Level Pressure  
Sea Level Pressure 30.37 in    
Wind  
Wind Speed 10 mph (NNW)    
Max Wind Speed 20 mph    
Max Gust Speed 33 mph    
Visibility 10 miles    
Events      
T = Trace of Precipitation, MM = Missing Value Source: NWS Daily Summary

Daily Weather History Graph

Daily Weather History Graph

Search for Another Location

Airport or City:

Trip Planner

Search our weather history database for the weather conditions in past years. The results will help you decide how hot, cold, wet, or windy it might be!

Date:

Astronomy

Feb. 01, 2013 Rise Set
Actual Time 6:44 AM CST 5:15 PM CST
Civil Twilight 6:18 AM CST 5:42 PM CST
Nautical Twilight 5:47 AM CST 6:12 PM CST
Astronomical Twilight 5:18 AM CST 6:42 PM CST
Moon 11:04 PM CST (2/1) 9:33 AM CST (2/1)
Length of Visible Light 11h 24m
Length of Day
10h 31m
Waning Gibbous, 70% of the Moon is Illuminated
Feb 1
Waning Gibbous
Feb 3
Last Quarter
Feb 10
New
Feb 17
First Quarter
Feb 25
Full

Hourly Weather History & Observations

Time (CST) Temp. Windchill Dew Point Humidity Pressure Visibility Wind Dir Wind Speed Gust Speed Precip Events Conditions
12:15 AM 41.0 °F 34.3 °F 26.6 °F 57% 30.17 in 10.0 mi WNW 11.5 mph 18.4 mph N/A   Mostly Cloudy
12:35 AM 41.0 °F 32.5 °F 30.2 °F 65% 30.18 in 10.0 mi NW 17.3 mph 20.7 mph N/A   Overcast
12:55 AM 39.2 °F 29.6 °F 30.2 °F 70% 30.20 in 10.0 mi NNW 19.6 mph 33.4 mph N/A   Overcast
1:15 AM 35.6 °F 25.9 °F 28.4 °F 75% 30.22 in 10.0 mi NW 16.1 mph 23.0 mph N/A   Overcast
1:35 AM 35.6 °F 26.6 °F 26.6 °F 70% 30.24 in 10.0 mi NW 13.8 mph 23.0 mph N/A   Overcast
1:55 AM 32.0 °F 21.2 °F 23.0 °F 69% 30.24 in 10.0 mi NW 16.1 mph 23.0 mph N/A   Mostly Cloudy
2:15 AM 32.0 °F 23.6 °F 21.2 °F 64% 30.25 in 10.0 mi NNW 10.4 mph 18.4 mph N/A   Scattered Clouds
2:35 AM 32.0 °F 23.6 °F 21.2 °F 64% 30.26 in 10.0 mi NW 10.4 mph - N/A   Scattered Clouds
2:55 AM 32.0 °F 22.5 °F 21.2 °F 64% 30.27 in 10.0 mi NNW 12.7 mph - N/A   Scattered Clouds
3:15 AM 30.2 °F 21.3 °F 19.4 °F 64% 30.27 in 10.0 mi NW 10.4 mph - N/A   Scattered Clouds
3:55 AM 30.2 °F 20.2 °F 19.4 °F 64% 30.29 in 10.0 mi NNW 12.7 mph 18.4 mph N/A   Overcast
4:15 AM 28.4 °F 17.0 °F 14.0 °F 55% 30.30 in 10.0 mi NNW 15.0 mph - N/A   Scattered Clouds
4:35 AM 28.4 °F 17.5 °F 12.2 °F 51% 30.31 in 10.0 mi NNW 13.8 mph 20.7 mph N/A   Clear
4:55 AM 28.4 °F 18.0 °F 14.0 °F 55% 30.33 in 10.0 mi NNW 12.7 mph - N/A   Clear
5:15 AM 26.6 °F 15.7 °F 14.0 °F 59% 30.34 in 10.0 mi NNW 12.7 mph - N/A   Clear
5:35 AM 26.6 °F 16.8 °F 14.0 °F 59% 30.35 in 10.0 mi NNW 10.4 mph - N/A   Clear
5:55 AM 26.6 °F 16.2 °F 14.0 °F 59% 30.36 in 10.0 mi NNW 11.5 mph - N/A   Scattered Clouds
6:15 AM 26.6 °F 15.7 °F 14.0 °F 59% 30.37 in 10.0 mi NNW 12.7 mph - N/A   Overcast
6:35 AM 26.6 °F 16.8 °F 14.0 °F 59% 30.38 in 10.0 mi North 10.4 mph 17.3 mph N/A   Mostly Cloudy
6:55 AM 24.8 °F 14.6 °F 12.2 °F 59% 30.39 in 10.0 mi North 10.4 mph - N/A   Scattered Clouds
7:15 AM 24.8 °F 14.6 °F 12.2 °F 59% 30.40 in 10.0 mi North 10.4 mph 16.1 mph N/A   Clear
7:35 AM 24.8 °F 15.3 °F 12.2 °F 59% 30.42 in 10.0 mi North 9.2 mph - N/A   Clear
7:55 AM 24.8 °F 14.0 °F 12.2 °F 59% 30.42 in 10.0 mi North 11.5 mph - N/A   Clear
8:15 AM 24.8 °F 15.3 °F 12.2 °F 59% 30.43 in 10.0 mi North 9.2 mph - N/A   Clear
8:35 AM 26.6 °F 16.8 °F 10.4 °F 51% 30.44 in 10.0 mi NNW 10.4 mph - N/A   Clear
8:55 AM 26.6 °F 16.8 °F 8.6 °F 47% 30.44 in 10.0 mi North 10.4 mph - N/A   Clear
9:15 AM 26.6 °F 17.5 °F 8.6 °F 47% 30.45 in 10.0 mi North 9.2 mph 16.1 mph N/A   Clear
9:35 AM 26.6 °F 17.5 °F 6.8 °F 43% 30.45 in 10.0 mi NNE 9.2 mph - N/A   Clear
9:55 AM 28.4 °F 20.4 °F 8.6 °F 43% 30.46 in 10.0 mi North 8.1 mph - N/A   Clear
10:15 AM 28.4 °F 19.7 °F 5.0 °F 37% 30.46 in 10.0 mi North 9.2 mph - N/A   Clear
10:35 AM 28.4 °F 21.2 °F 6.8 °F 40% 30.46 in 10.0 mi North 6.9 mph - N/A   Clear
10:55 AM 28.4 °F 19.7 °F 8.6 °F 43% 30.46 in 10.0 mi NNW 9.2 mph - N/A   Clear
11:15 AM 30.2 °F 21.9 °F 5.0 °F 34% 30.45 in 10.0 mi NNE 9.2 mph - N/A   Clear
11:35 AM 30.2 °F 22.6 °F 3.2 °F 32% 30.45 in 10.0 mi NNE 8.1 mph - N/A   Clear
11:55 AM 30.2 °F 24.3 °F 5.0 °F 34% 30.45 in 10.0 mi NW 5.8 mph - N/A   Clear
12:15 PM 32.0 °F 24.2 °F 5.0 °F 32% 30.44 in 10.0 mi NNW 9.2 mph - N/A   Clear
12:35 PM 32.0 °F 24.8 °F 5.0 °F 32% 30.44 in 10.0 mi NW 8.1 mph - N/A   Clear
12:55 PM 32.0 °F 26.4 °F 5.0 °F 32% 30.43 in 10.0 mi NNE 5.8 mph - N/A   Clear
1:15 PM 32.0 °F 27.5 °F 8.6 °F 38% 30.42 in 10.0 mi North 4.6 mph - N/A   Clear
1:35 PM 32.0 °F 28.7 °F 8.6 °F 38% 30.42 in 10.0 mi West 3.5 mph - N/A   Clear
1:55 PM 32.0 °F 27.5 °F 8.6 °F 38% 30.42 in 10.0 mi West 4.6 mph - N/A   Clear
2:15 PM 32.0 °F - 5.0 °F 32% 30.41 in 10.0 mi Calm Calm - N/A   Clear
2:35 PM 33.8 °F 27.7 °F 5.0 °F 30% 30.40 in 10.0 mi WNW 6.9 mph - N/A   Clear
2:55 PM 33.8 °F 27.0 °F 5.0 °F 30% 30.40 in 10.0 mi WNW 8.1 mph - N/A   Clear
3:15 PM 33.8 °F 29.6 °F 5.0 °F 30% 30.39 in 10.0 mi NNW 4.6 mph - N/A   Clear
3:35 PM 33.8 °F 28.6 °F 5.0 °F 30% 30.40 in 10.0 mi NNW 5.8 mph - N/A   Clear
3:55 PM 33.8 °F - 5.0 °F 30% 30.40 in 10.0 mi Calm Calm - N/A   Clear
4:15 PM 33.8 °F 28.6 °F 5.0 °F 30% 30.39 in 10.0 mi NW 5.8 mph - N/A   Clear
4:35 PM 33.8 °F 28.6 °F 6.8 °F 32% 30.39 in 10.0 mi NW 5.8 mph - N/A   Clear
4:55 PM 32.0 °F 26.4 °F 5.0 °F 32% 30.39 in 10.0 mi NNW 5.8 mph - N/A   Clear
5:15 PM 32.0 °F - 6.8 °F 35% 30.39 in 10.0 mi Calm Calm - N/A   Clear
5:35 PM 32.0 °F - 8.6 °F 38% 30.39 in 10.0 mi Calm Calm - N/A   Clear
5:55 PM 32.0 °F - 12.2 °F 44% 30.39 in 10.0 mi Calm Calm - N/A   Clear
6:15 PM 32.0 °F - 14.0 °F 48% 30.39 in 10.0 mi Calm Calm - N/A   Clear
6:35 PM 30.2 °F - 17.6 °F 60% 30.39 in 10.0 mi Calm Calm - N/A   Clear
6:55 PM 30.2 °F - 17.6 °F 60% 30.39 in 10.0 mi Calm Calm - N/A   Clear
7:15 PM 28.4 °F - 19.4 °F 69% 30.39 in 10.0 mi Calm Calm - N/A   Clear
7:35 PM 28.4 °F - 17.6 °F 64% 30.39 in 10.0 mi Calm Calm - N/A   Clear
8:15 PM 28.4 °F - 17.6 °F 64% 30.38 in 10.0 mi Calm Calm - N/A   Clear
8:35 PM 28.4 °F - 15.8 °F 59% 30.39 in 10.0 mi Calm Calm - N/A   Clear
8:55 PM 28.4 °F - 15.8 °F 59% 30.39 in 10.0 mi Calm Calm - N/A   Clear
9:15 PM 28.4 °F - 17.6 °F 64% 30.39 in 10.0 mi Calm Calm - N/A   Clear
9:55 PM 28.4 °F - 17.6 °F 64% 30.39 in 10.0 mi Calm Calm - N/A   Clear
10:15 PM 28.4 °F - 14.0 °F 55% 30.37 in 10.0 mi Calm Calm - N/A   Clear
10:35 PM 26.6 °F - 19.4 °F 74% 30.37 in 10.0 mi Calm Calm - N/A   Clear
10:55 PM 26.6 °F - 19.4 °F 74% 30.35 in 10.0 mi Calm Calm - N/A   Clear
11:15 PM 26.6 °F - 19.4 °F 74% 30.34 in 10.0 mi Calm Calm - N/A   Clear
11:35 PM 26.6 °F - 17.6 °F 69% 30.34 in 10.0 mi Calm Calm - N/A   Clear
11:55 PM 28.4 °F - 15.8 °F 59% 30.34 in 10.0 mi Calm Calm - N/A   Clear